Brady, TX

5:35 AM CST on February 24, 2017 (GMT -0600)
Curtis

Weather History for KBBD - February, 2013

Change the Weather History Date:

Monday, February 18, 2013

  Actual Average (KJCT) Record (KJCT)
Temperature  
Mean Temperature 62 °F -  
Max Temperature 75 °F 62 °F 82 °F (2017)
Min Temperature 48 °F 38 °F 21 °F (2007)
Degree Days  
Heating Degree Days 4    
Growing Degree Days 12 (Base 50)    
Moisture  
Dew Point 36 °F    
Average Humidity 46    
Maximum Humidity 82    
Minimum Humidity 11    
Precipitation  
Precipitation 0.00 in - - ()
Sea Level Pressure  
Sea Level Pressure 29.93 in    
Wind  
Wind Speed 16 mph (WSW)    
Max Wind Speed 24 mph    
Max Gust Speed 30 mph    
Visibility 10 miles    
Events      
Averages and records for this station are not official NWS values.
T = Trace of Precipitation, MM = Missing Value Source: NWS Daily Summary

Daily Weather History Graph

Daily Weather History Graph

Search for Another Location

Airport or City:

Trip Planner

Search our weather history database for the weather conditions in past years. The results will help you decide how hot, cold, wet, or windy it might be!

Date:

Astronomy

Feb. 18, 2013 Rise Set
Actual Time 7:15 AM CST 6:27 PM CST
Civil Twilight 6:50 AM CST 6:52 PM CST
Nautical Twilight 6:22 AM CST 7:20 PM CST
Astronomical Twilight 5:54 AM CST 7:48 PM CST
Moon 12:25 PM CST (2/18) 1:46 AM CST (2/18)
Length of Visible Light 12h 01m
Length of Day
11h 12m
First Quarter, 58% of the Moon is Illuminated
Feb 18
First Quarter
Feb 25
Full
Mar 4
Last Quarter
Mar 11
New
Mar 19
First Quarter

Hourly Weather History & Observations

Time (CST) Temp. Dew Point Humidity Pressure Visibility Wind Dir Wind Speed Gust Speed Precip Events Conditions
12:55 AM 55.4 °F 46.4 °F 72% 29.88 in 10.0 mi SSE 12.7 mph - N/A   Overcast
1:15 AM 55.4 °F 48.2 °F 77% 29.87 in 10.0 mi South 12.7 mph - N/A   Overcast
1:35 AM 55.4 °F 48.2 °F 77% 29.86 in 10.0 mi SSE 15.0 mph - N/A   Overcast
1:55 AM 57.2 °F 48.2 °F 72% 29.86 in 10.0 mi South 16.1 mph - N/A   Overcast
2:15 AM 57.2 °F 48.2 °F 72% 29.86 in 10.0 mi South 15.0 mph - N/A   Overcast
2:35 AM 57.2 °F 50.0 °F 77% 29.84 in 10.0 mi South 17.3 mph - N/A   Overcast
2:55 AM 57.2 °F 50.0 °F 77% 29.84 in 10.0 mi South 16.1 mph - N/A   Overcast
3:15 AM 57.2 °F 50.0 °F 77% 29.84 in 10.0 mi South 15.0 mph - N/A   Overcast
3:35 AM 57.2 °F 51.8 °F 82% 29.84 in 10.0 mi South 15.0 mph - N/A   Overcast
3:55 AM 57.2 °F 51.8 °F 82% 29.84 in 10.0 mi South 17.3 mph - N/A   Overcast
4:15 AM 59.0 °F 51.8 °F 77% 29.84 in 10.0 mi South 13.8 mph - N/A   Overcast
4:35 AM 59.0 °F 51.8 °F 77% 29.83 in 10.0 mi South 17.3 mph 29.9 mph N/A   Overcast
4:55 AM 59.0 °F 51.8 °F 77% 29.83 in 10.0 mi South 17.3 mph - N/A   Overcast
5:15 AM 59.0 °F 51.8 °F 77% 29.83 in 10.0 mi South 13.8 mph - N/A   Overcast
5:35 AM 59.0 °F 51.8 °F 77% 29.83 in 10.0 mi South 15.0 mph - N/A   Overcast
5:55 AM 59.0 °F 51.8 °F 77% 29.83 in 10.0 mi South 16.1 mph - N/A   Overcast
6:15 AM 59.0 °F 51.8 °F 77% 29.84 in 10.0 mi South 16.1 mph - N/A   Overcast
6:35 AM 59.0 °F 51.8 °F 77% 29.85 in 10.0 mi SSW 15.0 mph - N/A   Overcast
6:55 AM 59.0 °F 51.8 °F 77% 29.86 in 10.0 mi SSW 20.7 mph - N/A   Overcast
7:15 AM 59.0 °F 51.8 °F 77% 29.87 in 10.0 mi WSW 13.8 mph - N/A   Mostly Cloudy
7:35 AM 57.2 °F 51.8 °F 82% 29.87 in 10.0 mi SSW 16.1 mph - N/A   Overcast
7:55 AM 57.2 °F 51.8 °F 82% 29.87 in 10.0 mi SSW 16.1 mph - N/A   Scattered Clouds
8:15 AM 60.8 °F 51.8 °F 72% 29.88 in 10.0 mi SSW 16.1 mph - N/A   Clear
8:35 AM 60.8 °F 51.8 °F 72% 29.89 in 10.0 mi SSW 20.7 mph - N/A   Clear
8:55 AM 62.6 °F 51.8 °F 68% 29.89 in 10.0 mi SSW 20.7 mph - N/A   Clear
9:15 AM 62.6 °F 51.8 °F 68% 29.90 in 10.0 mi SSW 17.3 mph - N/A   Clear
9:35 AM 64.4 °F 51.8 °F 64% 29.90 in 10.0 mi SSW 12.7 mph - N/A   Clear
9:55 AM 66.2 °F 50.0 °F 56% 29.90 in 10.0 mi SSW 17.3 mph - N/A   Clear
10:15 AM 66.2 °F 50.0 °F 56% 29.90 in 10.0 mi SSW 15.0 mph - N/A   Clear
10:35 AM 69.8 °F 46.4 °F 43% 29.91 in 10.0 mi SW 20.7 mph - N/A   Clear
10:55 AM 71.6 °F 42.8 °F 35% 29.91 in 10.0 mi WSW 20.7 mph - N/A   Clear
11:15 AM 71.6 °F 42.8 °F 35% 29.91 in 10.0 mi WSW 17.3 mph - N/A   Clear
11:35 AM 73.4 °F 42.8 °F 33% 29.91 in 10.0 mi WSW 20.7 mph - N/A   Clear
11:55 AM 73.4 °F 35.6 °F 25% 29.90 in 10.0 mi West 21.9 mph 25.3 mph N/A   Clear
12:15 PM 73.4 °F 33.8 °F 23% 29.90 in 10.0 mi WSW 16.1 mph - N/A   Clear
12:35 PM 75.2 °F 30.2 °F 19% 29.90 in 10.0 mi West 20.7 mph - N/A   Clear
12:55 PM 75.2 °F 28.4 °F 18% 29.89 in 10.0 mi West 21.9 mph - N/A   Clear
1:15 PM 75.2 °F 28.4 °F 18% 29.89 in 10.0 mi West 16.1 mph - N/A   Clear
1:35 PM 75.2 °F 26.6 °F 17% 29.89 in 10.0 mi NW 19.6 mph - N/A   Clear
1:55 PM 75.2 °F 17.6 °F 11% 29.88 in 10.0 mi West 24.2 mph 28.8 mph N/A   Clear
2:15 PM 75.2 °F 15.8 °F 11% 29.89 in 10.0 mi NW 20.7 mph - N/A   Clear
2:35 PM 75.2 °F 17.6 °F 11% 29.89 in 10.0 mi NW 21.9 mph - N/A   Clear
2:55 PM 75.2 °F 17.6 °F 11% 29.89 in 10.0 mi NW 19.6 mph - N/A   Clear
3:15 PM 75.2 °F 15.8 °F 11% 29.89 in 10.0 mi NW 19.6 mph - N/A   Clear
3:35 PM 75.2 °F 15.8 °F 11% 29.90 in 10.0 mi WNW 18.4 mph - N/A   Clear
3:55 PM 73.4 °F 15.8 °F 11% 29.90 in 10.0 mi WNW 21.9 mph - N/A   Clear
4:15 PM 73.4 °F 15.8 °F 11% 29.91 in 10.0 mi WNW 23.0 mph - N/A   Clear
4:35 PM 73.4 °F 17.6 °F 12% 29.92 in 10.0 mi NW 23.0 mph - N/A   Clear
4:55 PM 71.6 °F 17.6 °F 13% 29.92 in 10.0 mi WNW 24.2 mph - N/A   Clear
5:15 PM 69.8 °F 15.8 °F 13% 29.94 in 10.0 mi NW 23.0 mph - N/A   Clear
5:35 PM 69.8 °F 17.6 °F 14% 29.95 in 10.0 mi NNW 16.1 mph - N/A   Clear
5:55 PM 66.2 °F 17.6 °F 15% 29.96 in 10.0 mi NW 24.2 mph - N/A   Clear
6:15 PM 64.4 °F 17.6 °F 16% 29.98 in 10.0 mi NNW 11.5 mph - N/A   Clear
6:35 PM 62.6 °F 19.4 °F 19% 29.99 in 10.0 mi NNW 10.4 mph - N/A   Clear
6:55 PM 62.6 °F 21.2 °F 20% 30.00 in 10.0 mi North 16.1 mph - N/A   Clear
7:15 PM 59.0 °F 26.6 °F 29% 30.02 in 10.0 mi North 16.1 mph - N/A   Clear
7:35 PM 57.2 °F 26.6 °F 31% 30.04 in 10.0 mi North 10.4 mph - N/A   Clear
7:55 PM 55.4 °F 26.6 °F 33% 30.04 in 10.0 mi North 13.8 mph - N/A   Clear
8:15 PM 55.4 °F 26.6 °F 33% 30.06 in 10.0 mi North 12.7 mph - N/A   Clear
8:35 PM 53.6 °F 26.6 °F 35% 30.07 in 10.0 mi North 11.5 mph - N/A   Clear
8:55 PM 53.6 °F 26.6 °F 35% 30.07 in 10.0 mi North 12.7 mph - N/A   Clear
9:15 PM 53.6 °F 26.6 °F 35% 30.08 in 10.0 mi North 12.7 mph - N/A   Clear
9:35 PM 51.8 °F 26.6 °F 38% 30.09 in 10.0 mi North 11.5 mph - N/A   Clear
9:55 PM 51.8 °F 26.6 °F 38% 30.10 in 10.0 mi NNE 10.4 mph - N/A   Clear
10:15 PM 50.0 °F 26.6 °F 40% 30.10 in 10.0 mi NNE 9.2 mph - N/A   Clear
10:35 PM 50.0 °F 26.6 °F 40% 30.11 in 10.0 mi NNE 10.4 mph - N/A   Clear
10:55 PM 50.0 °F 26.6 °F 40% 30.11 in 10.0 mi NNE 11.5 mph - N/A   Clear
11:15 PM 48.2 °F 26.6 °F 43% 30.11 in 10.0 mi NNE 11.5 mph - N/A   Clear
11:35 PM 48.2 °F 26.6 °F 43% 30.11 in 10.0 mi NNE 11.5 mph - N/A   Clear
11:55 PM 48.2 °F 26.6 °F 43% 30.11 in 10.0 mi NNE 12.7 mph - N/A   Clear